Tracking 29090 objects as of 16-Jul-2024
HD Live streaming from Space Station
objects crossing your sky now

SL-12 R/B(AUX MOTOR)

Track SL-12 R/B(AUX MOTOR) now!
10-day predictions


NORAD ID: 19170
Int'l Code: 1988-043H
Perigee: 731.8 km
Apogee: 18,723.4 km
Inclination: 65.2 °
Period: 338.8 minutes
Semi major axis: 16098 km
RCS: 0.7038 m2 (medium)
Launch date: May 21, 1988
Source: Commonwealth of Independent States (former USSR) (CIS)
Launch site: TYURATAM MISSILE AND SPACE COMPLEX (TTMTR)

Note: This is a ROCKET BODY
Your satellite tracking list
Your tracking list is empty




NASA's NSSDC Master Catalog

Two Line Element Set (TLE):
1 19170U 88043H   24197.37173280  .00000110  00000-0  23404-3 0  9993
2 19170  65.2340 180.7593 5587960  57.8642 344.5689  4.25031863560221
Source of the keplerian elements: AFSPC